sat.trackr.live / text

‹ back to catalog

ONEWEB-0711

NORAD 55174 · 2023-004AL

PAYLOAD ACTIVE UNKNOWN

§ Identity

Operator
Country
UK
Launch date
2023-01-10
Launch site
AFETR
Launch vehicle
Mass (kg)
RCS (m²)

Purposes: comms

External: N2YO · Heavens-Above · Gunter

§ Orbital elements

Epoch: 2026-09-20T00:17:51.844704Z

Period
109.80 min
Inclination
87.8971°
Eccentricity
0.0002113
Mean motion
13.11418347 rev/d
Perigee alt
1,216.1 km
Apogee alt
1,219.3 km
Semi-major
7,595.8 km
B*
-8.0164e-4
RAAN
2.2168°
Arg perigee
120.4994°
Mean anomaly
239.6343°
Rev number
17,826

§ Raw data

ONEWEB-07111 55174U 23004AL  26263.01240561 -.00000271  00000+0 -80164-3 0  99922 55174  87.8971   2.2168 0002113 120.4994 239.6343 13.11418347178266

JSON: /api/v1/satellites/55174 · /tle

For live sub-satellite position, see the globe view (requires WebGL).

§ Visibility from observer

Set your observer location to see the next 7 days of passes ≥ 10°. The values pass through the URL so the page stays shareable.

No JS? Fill the form by hand. The geolocation button needs JavaScript.